Flag for Jordan Weather past 2 weeks in Zarqa, Jordan

Now
77 °F

Haze.


Feels Like: 79 °F
Forecast: 64 / 93 °F
Wind: 5 mph from West

Location: Amman Airport

Current Time: Aug 27, 2015 at 10:29:22 PM

Latest Report: Aug 27, 2015 at 9:00 PM


Visibility: 3 mi

Pressure: 29.98 "Hg (27.94 "Hg at 615m altitude)

Humidity: 51%

Dew point: 57 °F

Location of ZarqaLocation

Historic Weather in Zarqa — Graph

°F

Zarqa temperature yesterday

Maximum temperature yesterday: 90 °F (at 3:00 PM)
Minimum temperature yesterday: 68 °F (at 4:00 AM)
Average temperature yesterday: 78 °F

Past Weeks' High & Low Weather Summary

 TemperatureHumidityPressure
High102 °F (Aug 17, 2:00 PM)88% (Aug 22, 7:00 AM)30.01 "Hg (Aug 22, 7:00 AM)
Low68 °F (Aug 13, 6:00 AM)3% (Aug 20, 12:00 PM)29.83 "Hg (Aug 22, 4:00 PM)
Average82 °F43%29.90 "Hg
* Reported Aug 12 9:00 PM — Aug 27 9:00 PM, Zarqa, Weather by CustomWeather, © 2015

Note: Actual official high and low records may vary slightly from our data, if they occured in-between our weather recording intervals... More about our weather records

Advertising

Zarqa weather history for previous 24 hours

 ConditionsComfort  
Time TempWeatherWind HumidityBarometerVisibility
9:00 PM
Thu, Aug 27
77 °FHaze.5 mph51%29.98 "Hg3 mi
8:00 PM79 °FHaze.3 mph45%29.92 "Hg3 mi
7:00 PM81 °FHaze.5 mph45%29.92 "Hg3 mi
6:00 PM84 °FHaze.9 mph37%29.92 "Hg2 mi
5:00 PM86 °FClear.12 mph27%29.95 "Hg4 mi
4:00 PM88 °FClear.12 mph25%29.95 "Hg4 mi
3:00 PM88 °FClear.12 mph25%29.95 "Hg4 mi
2:00 PM86 °FHaze.5 mph17%29.95 "Hg4 mi
1:00 PM86 °FHaze.5 mph22%29.95 "Hg3 mi
12:00 PM86 °FHaze.9 mph22%29.95 "Hg3 mi
11:00 AM81 °FHaze.5 mph34%29.95 "Hg3 mi
10:00 AM77 °FHaze.No wind44%29.95 "Hg3 mi
9:00 AM75 °FHaze.No wind54%29.92 "Hg2 mi
8:00 AM70 °FHaze.No wind78%29.92 "Hg2 mi
7:00 AM70 °FHaze.No wind73%29.89 "Hg2 mi
6:00 AM68 °FHaze.No wind78%29.89 "Hg3 mi
5:00 AM70 °FHaze.No wind78%29.89 "Hg3 mi
4:00 AM70 °FHaze.No wind78%29.89 "Hg3 mi
3:00 AM70 °FHaze.No wind78%29.89 "Hg3 mi
2:00 AM72 °FHaze.No wind73%29.89 "Hg3 mi
1:00 AM73 °FHaze.No wind69%29.89 "Hg3 mi
12:00 AM73 °FHaze.7 mph69%29.89 "Hg3 mi
11:00 PM
Wed, Aug 26
75 °FHaze.6 mph69%29.89 "Hg3 mi
10:00 PM75 °FHaze.6 mph69%29.89 "Hg3 mi
Weather by CustomWeather, © 2015

See weather overviewHow to use our weather pages